| time (UTC) | temp F | wind direction | speed knots | gust knots | rain 1hr in | rain 24hr in | rain mn in | humidity % | barometer mb |
| 20260902074645 | 75 | 341 | 0.9 | 1.7 | 0.00 | 0.00 | 0.00 | 98 | 1020.8 |
| 20260902074140 | 75 | 335 | 1.7 | 1.7 | 0.00 | 0.00 | 0.00 | 97 | 1021.0 |
| 20260902073635 | 75 | 327 | 0.9 | 1.7 | 0.00 | 0.00 | 0.00 | 97 | 1020.9 |
| 20260902073132 | 75 | 329 | 0.9 | 1.7 | 0.00 | 0.00 | 0.00 | 97 | 1021.0 |
| 20260902072627 | 75 | 351 | 0.9 | 1.7 | 0.00 | 0.00 | 0.00 | 97 | 1020.9 |
| 20260902072124 | 75 | 334 | 1.7 | 1.7 | 0.00 | 0.00 | 0.00 | 97 | 1021.0 |
| 20260902071620 | 75 | 330 | 1.7 | 1.7 | 0.00 | 0.00 | 0.00 | 97 | 1021.2 |
| 20260902071115 | 75 | 333 | 0.9 | 1.7 | 0.00 | 0.00 | 0.00 | 97 | 1021.3 |
| 20260902070611 | 76 | 332 | 0.9 | 1.7 | 0.00 | 0.00 | 0.00 | 97 | 1021.3 |
| 20260902070105 | 75 | 341 | 1.7 | 2.6 | 0.00 | 0.00 | 0.00 | 97 | 1021.4 |
| 20260902065604 | 75 | 330 | 1.7 | 1.7 | 0.00 | 0.00 | 0.00 | 97 | 1021.3 |
| 20260902065100 | 76 | 356 | 0.9 | 1.7 | 0.00 | 0.00 | 0.00 | 97 | 1021.2 |
| 20260902064556 | 75 | 342 | 1.7 | 1.7 | 0.00 | 0.00 | 0.00 | 96 | 1021.2 |
| 20260902064056 | 75 | 333 | 1.7 | 1.7 | 0.00 | 0.00 | 0.00 | 96 | 1021.1 |
| 20260902063556 | 75 | 334 | 1.7 | 1.7 | 0.00 | 0.00 | 0.00 | 96 | 1021.1 |
| 20260902063051 | 75 | 332 | 1.7 | 1.7 | 0.00 | 0.00 | 0.00 | 96 | 1021.2 |
| 20260902062550 | 76 | 341 | 0.9 | 1.7 | 0.00 | 0.00 | 0.00 | 96 | 1021.2 |
| 20260902062046 | 75 | 334 | 1.7 | 1.7 | 0.00 | 0.00 | 0.00 | 95 | 1021.3 |
| 20260902061544 | 75 | 334 | 1.7 | 1.7 | 0.00 | 0.00 | 0.00 | 95 | 1021.2 |
| 20260902061041 | 75 | 333 | 1.7 | 1.7 | 0.00 | 0.00 | 0.00 | 95 | 1021.4 |
| 20260902060538 | 76 | 342 | 1.7 | 1.7 | 0.00 | 0.00 | 0.00 | 94 | 1021.3 |
| 20260902060034 | 76 | 336 | 1.7 | 1.7 | 0.00 | 0.00 | 0.00 | 94 | 1021.3 |
| 20260902055529 | 76 | 329 | 0.9 | 1.7 | 0.00 | 0.00 | 0.00 | 94 | 1021.2 |
| 20260902055025 | 76 | 346 | 1.7 | 1.7 | 0.00 | 0.00 | 0.00 | 93 | 1021.2 |
| 20260902054525 | 76 | 339 | 1.7 | 1.7 | 0.00 | 0.00 | 0.00 | 92 | 1021.3 |
| 20260902054020 | 75 | 339 | 1.7 | 1.7 | 0.00 | 0.00 | 0.00 | 92 | 1021.3 |
| 20260902053515 | 76 | 334 | 1.7 | 1.7 | 0.00 | 0.00 | 0.00 | 92 | 1021.2 |
| 20260902053010 | 76 | 331 | 1.7 | 1.7 | 0.00 | 0.00 | 0.00 | 92 | 1021.3 |
| 20260902052510 | 76 | 341 | 1.7 | 2.6 | 0.00 | 0.00 | 0.00 | 92 | 1021.3 |
| 20260902052005 | 76 | 335 | 1.7 | 1.7 | 0.00 | 0.00 | 0.00 | 92 | 1021.3 |
| 20260902051500 | 76 | 343 | 1.7 | 1.7 | 0.00 | 0.00 | 0.00 | 91 | 1021.3 |
| 20260902050958 | 76 | 341 | 1.7 | 1.7 | 0.00 | 0.00 | 0.00 | 91 | 1021.4 |
| 20260902050453 | 76 | 337 | 1.7 | 1.7 | 0.00 | 0.00 | 0.00 | 91 | 1021.3 |
| 20260902045948 | 76 | 341 | 1.7 | 1.7 | 0.00 | 0.00 | 0.00 | 91 | 1021.3 |
| 20260902045443 | 76 | 338 | 0.9 | 1.7 | 0.00 | 0.00 | 0.00 | 91 | 1021.1 |
| 20260902044939 | 76 | 340 | 1.7 | 1.7 | 0.00 | 0.00 | 0.00 | 90 | 1021.2 |
| 20260902044429 | 76 | 341 | 1.7 | 1.7 | 0.00 | 0.00 | 0.00 | 90 | 1021.2 |
| 20260902043925 | 77 | 341 | 1.7 | 1.7 | 0.00 | 0.00 | 0.00 | 90 | 1021.3 |
| 20260902043420 | 77 | 338 | 1.7 | 1.7 | 0.00 | 0.00 | 0.00 | 90 | 1021.4 |
| 20260902042915 | 77 | 337 | 1.7 | 1.7 | 0.00 | 0.00 | 0.00 | 91 | 1021.1 |
| 20260902042414 | 77 | 349 | 1.7 | 1.7 | 0.00 | 0.00 | 0.00 | 90 | 1021.0 |
| 20260902041909 | 77 | 334 | 1.7 | 2.6 | 0.00 | 0.00 | 0.00 | 89 | 1021.2 |
| 20260902041409 | 77 | 338 | 1.7 | 1.7 | 0.00 | 0.00 | 0.00 | 90 | 1021.3 |
| 20260902040908 | 77 | 332 | 1.7 | 2.6 | 0.00 | 0.00 | 0.00 | 89 | 1021.3 |
| 20260902040404 | 77 | 340 | 1.7 | 1.7 | 0.00 | 0.00 | 0.00 | 89 | 1021.2 |
| 20260902035903 | 78 | 338 | 1.7 | 1.7 | 0.00 | 0.00 | 0.00 | 90 | 1021.2 |
| 20260902035358 | 77 | 338 | 1.7 | 1.7 | 0.00 | 0.00 | 0.00 | 89 | 1021.3 |
| 20260902034856 | 78 | 341 | 1.7 | 1.7 | 0.00 | 0.00 | 0.00 | 89 | 1021.4 |
| 20260902034353 | 78 | 336 | 1.7 | 1.7 | 0.00 | 0.00 | 0.00 | 89 | 1021.2 |
| 20260902033851 | 78 | 341 | 1.7 | 1.7 | 0.00 | 0.00 | 0.00 | 88 | 1021.3 |
| 20260902033346 | 78 | 333 | 1.7 | 1.7 | 0.00 | 0.00 | 0.00 | 88 | 1021.2 |
| 20260902032844 | 78 | 342 | 0.9 | 1.7 | 0.00 | 0.00 | 0.00 | 88 | 1021.5 |
| 20260902032344 | 78 | 334 | 0.9 | 1.7 | 0.00 | 0.00 | 0.00 | 88 | 1021.3 |
| 20260902031839 | 78 | 334 | 1.7 | 1.7 | 0.00 | 0.00 | 0.00 | 88 | 1021.2 |
| 20260902031335 | 78 | 328 | 1.7 | 1.7 | 0.00 | 0.00 | 0.00 | 88 | 1021.3 |
| 20260902030830 | 79 | 1 | 0.9 | 1.7 | 0.00 | 0.00 | 0.00 | 88 | 1021.3 |
| 20260902030325 | 78 | 335 | 1.7 | 1.7 | 0.00 | 0.00 | 0.00 | 87 | 1021.5 |
| 20260902025824 | 79 | 348 | 0.9 | 1.7 | 0.00 | 0.00 | 0.00 | 88 | 1021.3 |
| 20260902025320 | 78 | 333 | 1.7 | 1.7 | 0.00 | 0.00 | 0.00 | 87 | 1021.5 |
| 20260902024815 | 79 | 338 | 1.7 | 2.6 | 0.00 | 0.00 | 0.00 | 86 | 1021.5 |
| 20260902024310 | 79 | 340 | 1.7 | 1.7 | 0.00 | 0.00 | 0.00 | 87 | 1021.5 |
| 20260902023805 | 79 | 341 | 1.7 | 1.7 | 0.00 | 0.00 | 0.00 | 86 | 1021.4 |
| 20260902023300 | 79 | 338 | 1.7 | 1.7 | 0.00 | 0.00 | 0.00 | 86 | 1021.6 |
| 20260902022759 | 79 | 340 | 1.7 | 1.7 | 0.00 | 0.00 | 0.00 | 86 | 1021.5 |
| 20260902022255 | 80 | 333 | 1.7 | 1.7 | 0.00 | 0.00 | 0.00 | 85 | 1021.4 |
| 20260902021751 | 80 | 341 | 1.7 | 1.7 | 0.00 | 0.00 | 0.00 | 85 | 1021.2 |
| 20260902021250 | 80 | 340 | 1.7 | 1.7 | 0.00 | 0.00 | 0.00 | 84 | 1021.5 |
| 20260902020747 | 80 | 341 | 0.9 | 1.7 | 0.00 | 0.00 | 0.00 | 84 | 1021.3 |
| 20260902020243 | 80 | 339 | 1.7 | 1.7 | 0.00 | 0.00 | 0.00 | 85 | 1021.2 |
| 20260902015737 | 80 | 333 | 1.7 | 1.7 | 0.00 | 0.00 | 0.00 | 85 | 1020.9 |
| 20260902015234 | 80 | 339 | 1.7 | 2.6 | 0.00 | 0.00 | 0.00 | 85 | 1021.1 |
| 20260902014730 | 80 | 334 | 0.9 | 1.7 | 0.00 | 0.00 | 0.00 | 84 | 1021.1 |
| 20260902014226 | 80 | 333 | 1.7 | 1.7 | 0.00 | 0.00 | 0.00 | 84 | 1021.0 |
| 20260902013724 | 81 | 340 | 1.7 | 1.7 | 0.00 | 0.00 | 0.00 | 84 | 1020.8 |
| 20260902013221 | 81 | 332 | 1.7 | 1.7 | 0.00 | 0.00 | 0.00 | 83 | 1020.8 |
| 20260902012716 | 81 | 336 | 1.7 | 1.7 | 0.00 | 0.00 | 0.00 | 82 | 1021.0 |
| 20260902012212 | 81 | 335 | 1.7 | 1.7 | 0.00 | 0.00 | 0.00 | 84 | 1020.9 |
| 20260902011707 | 81 | 335 | 0.9 | 2.6 | 0.00 | 0.00 | 0.00 | 82 | 1020.8 |
| 20260902011206 | 82 | 340 | 0.9 | 0.9 | 0.00 | 0.00 | 0.00 | 82 | 1020.9 |
| 20260902010705 | 82 | 331 | 1.7 | 1.7 | 0.00 | 0.00 | 0.00 | 81 | 1020.9 |
| 20260902010201 | 82 | 339 | 1.7 | 2.6 | 0.00 | 0.00 | 0.00 | 81 | 1020.7 |
| 20260902005659 | 82 | 341 | 1.7 | 2.6 | 0.00 | 0.00 | 0.00 | 80 | 1020.7 |
| 20260902005155 | 82 | 332 | 1.7 | 1.7 | 0.00 | 0.00 | 0.00 | 80 | 1020.5 |
| 20260902004655 | 82 | 336 | 1.7 | 1.7 | 0.00 | 0.00 | 0.00 | 80 | 1020.7 |
| 20260902004150 | 83 | 331 | 1.7 | 1.7 | 0.00 | 0.00 | 0.00 | 80 | 1020.6 |
| 20260902003646 | 83 | 351 | 1.7 | 2.6 | 0.00 | 0.00 | 0.00 | 80 | 1020.5 |
| 20260902003142 | 83 | 348 | 1.7 | 1.7 | 0.00 | 0.00 | 0.00 | 79 | 1020.8 |
| 20260902002636 | 83 | 2 | 1.7 | 1.7 | 0.00 | 0.00 | 0.00 | 80 | 1020.6 |
| 20260902002131 | 84 | 359 | 0.9 | 1.7 | 0.00 | 0.00 | 0.00 | 79 | 1020.5 |
| 20260902001626 | 84 | 333 | 1.7 | 2.6 | 0.00 | 0.00 | 0.00 | 79 | 1020.5 |
| 20260902001120 | 84 | 336 | 1.7 | 2.6 | 0.00 | 0.00 | 0.00 | 78 | 1020.6 |
| 20260902000616 | 85 | 349 | 1.7 | 1.7 | 0.00 | 0.00 | 0.00 | 77 | 1020.6 |
| 20260902000111 | 85 | 339 | 1.7 | 2.6 | 0.00 | 0.00 | 0.00 | 77 | 1020.5 |
| 20260901235610 | 85 | 341 | 1.7 | 1.7 | 0.00 | 0.00 | 0.00 | 76 | 1020.6 |
| 20260901235106 | 86 | 334 | 1.7 | 1.7 | 0.00 | 0.00 | 0.00 | 75 | 1020.7 |
| 20260901234604 | 86 | 339 | 1.7 | 1.7 | 0.00 | 0.00 | 0.00 | 73 | 1020.6 |
| 20260901234100 | 87 | 342 | 1.7 | 1.7 | 0.00 | 0.00 | 0.00 | 73 | 1020.5 |
| 20260901233600 | 87 | 340 | 1.7 | 1.7 | 0.00 | 0.00 | 0.00 | 70 | 1020.6 |
| 20260901233056 | 88 | 340 | 1.7 | 1.7 | 0.00 | 0.00 | 0.00 | 69 | 1020.5 |
| 20260901232551 | 88 | 339 | 0.9 | 1.7 | 0.00 | 0.00 | 0.00 | 67 | 1020.7 |
| 20260901232046 | 89 | 329 | 0.9 | 1.7 | 0.00 | 0.00 | 0.00 | 67 | 1020.9 |
| 20260901231543 | 90 | 9 | 0.9 | 0.9 | 0.00 | 0.00 | 0.00 | 66 | 1020.8 |
| 20260901231039 | 90 | 351 | 0.9 | 0.9 | 0.00 | 0.00 | 0.00 | 65 | 1020.7 |
| 20260901230539 | 91 | 55 | 0.0 | 0.9 | 0.00 | 0.00 | 0.00 | 64 | 1020.6 |
| 20260901230034 | 92 | 86 | 0.0 | 0.0 | 0.00 | 0.00 | 0.00 | 64 | 1020.5 |
| 20260901225529 | 92 | 356 | 0.9 | 0.9 | 0.00 | 0.00 | 0.00 | 62 | 1020.5 |
| 20260901225029 | 93 | 103 | 0.0 | 2.6 | 0.00 | 0.00 | 0.00 | 59 | 1020.4 |
| 20260901224525 | 93 | 113 | 0.9 | 1.7 | 0.00 | 0.00 | 0.00 | 60 | 1020.5 |
| 20260901224021 | 92 | 74 | 0.0 | 2.6 | 0.00 | 0.00 | 0.00 | 59 | 1020.5 |
| 20260901223516 | 93 | 88 | 1.7 | 2.6 | 0.00 | 0.00 | 0.00 | 60 | 1020.4 |
| 20260901223012 | 93 | 106 | 1.7 | 1.7 | 0.00 | 0.00 | 0.00 | 57 | 1020.5 |
| 20260901222508 | 93 | 137 | 1.7 | 2.6 | 0.00 | 0.00 | 0.00 | 55 | 1020.4 |
| 20260901222003 | 94 | 116 | 0.9 | 0.9 | 0.00 | 0.00 | 0.00 | 59 | 1020.3 |
| 20260901221500 | 94 | 128 | 0.9 | 0.9 | 0.00 | 0.00 | 0.00 | 53 | 1020.6 |
| 20260901221000 | 94 | 127 | 1.7 | 1.7 | 0.00 | 0.00 | 0.00 | 54 | 1020.3 |
| 20260901220459 | 94 | 117 | 0.9 | 0.9 | 0.00 | 0.00 | 0.00 | 58 | 1020.4 |
| 20260901215958 | 96 | 144 | 0.9 | 0.9 | 0.00 | 0.00 | 0.00 | 50 | 1020.2 |
| 20260901215456 | 96 | 141 | 0.0 | 0.9 | 0.00 | 0.00 | 0.00 | 54 | 1020.4 |
| 20260901214956 | 100 | 162 | 0.0 | 0.9 | 0.00 | 0.00 | 0.00 | 50 | 1020.5 |
| 20260901214454 | 97 | 160 | 0.0 | 0.0 | 0.00 | 0.00 | 0.00 | 49 | 1020.3 |
| 20260901213949 | 95 | 108 | 0.0 | 0.9 | 0.00 | 0.00 | 0.00 | 54 | 1020.4 |
| 20260901213444 | 94 | 106 | 0.9 | 0.9 | 0.00 | 0.00 | 0.00 | 57 | 1020.5 |
| 20260901212943 | 93 | 112 | 1.7 | 1.7 | 0.00 | 0.00 | 0.00 | 57 | 1020.7 |
| 20260901212439 | 98 | 161 | 0.0 | 0.0 | 0.00 | 0.00 | 0.00 | 49 | 1020.4 |
| 20260901211936 | 95 | 103 | 0.0 | 2.6 | 0.00 | 0.00 | 0.00 | 51 | 1020.6 |
| 20260901211431 | 94 | 107 | 0.9 | 1.7 | 0.00 | 0.00 | 0.00 | 52 | 1020.7 |
| 20260901210926 | 96 | 140 | 0.9 | 1.7 | 0.00 | 0.00 | 0.00 | 50 | 1020.5 |
| 20260901210423 | 93 | 125 | 0.9 | 3.5 | 0.00 | 0.00 | 0.00 | 56 | 1020.7 |
| 20260901205919 | 93 | 100 | 1.7 | 3.5 | 0.00 | 0.00 | 0.00 | 55 | 1020.5 |
| 20260901205418 | 93 | 119 | 1.7 | 1.7 | 0.00 | 0.00 | 0.00 | 59 | 1020.6 |
| 20260901204913 | 93 | 121 | 1.7 | 2.6 | 0.00 | 0.00 | 0.00 | 53 | 1020.6 |
| 20260901204410 | 93 | 137 | 0.9 | 1.7 | 0.00 | 0.00 | 0.00 | 57 | 1020.5 |
| 20260901203910 | 93 | 150 | 1.7 | 1.7 | 0.00 | 0.00 | 0.00 | 56 | 1020.9 |
| 20260901203404 | 92 | 124 | 1.7 | 1.7 | 0.00 | 0.00 | 0.00 | 57 | 1020.9 |
| 20260901202859 | 92 | 130 | 1.7 | 1.7 | 0.00 | 0.00 | 0.00 | 55 | 1020.8 |
| 20260901202354 | 93 | 126 | 0.9 | 2.6 | 0.00 | 0.00 | 0.00 | 57 | 1021.1 |
| 20260901201851 | 93 | 137 | 1.7 | 1.7 | 0.00 | 0.00 | 0.00 | 56 | 1021.2 |
| 20260901201350 | 93 | 117 | 1.7 | 1.7 | 0.00 | 0.00 | 0.00 | 57 | 1021.1 |
| 20260901200850 | 92 | 111 | 0.9 | 2.6 | 0.00 | 0.00 | 0.00 | 62 | 1021.2 |
| 20260901200345 | 92 | 104 | 3.5 | 3.5 | 0.00 | 0.00 | 0.00 | 57 | 1021.2 |
| 20260901195844 | 92 | 116 | 1.7 | 2.6 | 0.00 | 0.00 | 0.00 | 57 | 1021.1 |
| 20260901195337 | 92 | 127 | 0.9 | 1.7 | 0.00 | 0.00 | 0.00 | 61 | 1021.1 |
| 20260901194833 | 92 | 111 | 1.7 | 2.6 | 0.00 | 0.00 | 0.00 | 59 | 1021.2 |
| 20260901194332 | 91 | 117 | 1.7 | 2.6 | 0.00 | 0.00 | 0.00 | 63 | 1021.2 |
| 20260901193829 | 91 | 118 | 1.7 | 2.6 | 0.00 | 0.00 | 0.00 | 59 | 1021.4 |
| 20260901193328 | 91 | 123 | 1.7 | 2.6 | 0.00 | 0.00 | 0.00 | 62 | 1021.4 |
| 20260901192822 | 91 | 114 | 1.7 | 2.6 | 0.00 | 0.00 | 0.00 | 60 | 1021.5 |
| 20260901192318 | 91 | 127 | 2.6 | 2.6 | 0.00 | 0.00 | 0.00 | 65 | 1021.9 |
| 20260901191815 | 91 | 123 | 1.7 | 2.6 | 0.00 | 0.00 | 0.00 | 64 | 1021.7 |
| 20260901191309 | 91 | 119 | 1.7 | 2.6 | 0.00 | 0.00 | 0.00 | 67 | 1021.7 |
| 20260901190806 | 91 | 116 | 2.6 | 2.6 | 0.00 | 0.00 | 0.00 | 61 | 1021.8 |
| 20260901190305 | 91 | 115 | 2.6 | 2.6 | 0.00 | 0.00 | 0.00 | 60 | 1021.7 |
| 20260901185804 | 91 | 154 | 0.9 | 1.7 | 0.00 | 0.00 | 0.00 | 61 | 1021.9 |
| 20260901185305 | 91 | 142 | 2.6 | 2.6 | 0.00 | 0.00 | 0.00 | 62 | 1022.0 |
| 20260901184758 | 91 | 135 | 1.7 | 1.7 | 0.00 | 0.00 | 0.00 | 61 | 1022.1 |
| 20260901184254 | 91 | 135 | 1.7 | 1.7 | 0.00 | 0.00 | 0.00 | 61 | 1021.9 |
| 20260901183749 | 91 | 136 | 1.7 | 1.7 | 0.00 | 0.00 | 0.00 | 61 | 1022.1 |
| 20260901183249 | 91 | 144 | 1.7 | 2.6 | 0.00 | 0.00 | 0.00 | 61 | 1022.1 |
| 20260901182745 | 90 | 136 | 0.9 | 1.7 | 0.00 | 0.00 | 0.00 | 59 | 1022.2 |
| 20260901182244 | 91 | 96 | 0.9 | 2.6 | 0.00 | 0.00 | 0.00 | 58 | 1022.2 |
| 20260901181739 | 90 | 119 | 2.6 | 2.6 | 0.00 | 0.00 | 0.00 | 58 | 1022.3 |
| 20260901181233 | 90 | 117 | 2.6 | 3.5 | 0.00 | 0.00 | 0.00 | 60 | 1022.4 |
| 20260901180732 | 90 | 115 | 2.6 | 3.5 | 0.00 | 0.00 | 0.00 | 57 | 1022.3 |
| 20260901180232 | 90 | 100 | 3.5 | 3.5 | 0.00 | 0.00 | 0.00 | 60 | 1022.4 |
| 20260901175731 | 90 | 101 | 3.5 | 3.5 | 0.00 | 0.00 | 0.00 | 63 | 1022.3 |
| 20260901175226 | 89 | 121 | 1.7 | 2.6 | 0.00 | 0.00 | 0.00 | 68 | 1022.5 |
| 20260901174721 | 89 | 111 | 1.7 | 2.6 | 0.00 | 0.00 | 0.00 | 67 | 1022.7 |
| 20260901174217 | 89 | 116 | 1.7 | 2.6 | 0.00 | 0.00 | 0.00 | 67 | 1022.4 |
| 20260901173712 | 89 | 103 | 2.6 | 2.6 | 0.00 | 0.00 | 0.00 | 69 | 1022.9 |
| 20260901173207 | 88 | 111 | 2.6 | 2.6 | 0.00 | 0.00 | 0.00 | 67 | 1022.7 |
| 20260901172704 | 89 | 137 | 0.9 | 1.7 | 0.00 | 0.00 | 0.00 | 66 | 1022.9 |
| 20260901172202 | 89 | 136 | 0.9 | 1.7 | 0.00 | 0.00 | 0.00 | 67 | 1023.1 |
| 20260901171701 | 91 | 146 | 0.9 | 1.7 | 0.00 | 0.00 | 0.00 | 66 | 1023.1 |
| 20260901171201 | 92 | 170 | 0.9 | 0.9 | 0.00 | 0.00 | 0.00 | 63 | 1023.0 |
| 20260901170700 | 91 | 181 | 0.9 | 1.7 | 0.00 | 0.00 | 0.00 | 64 | 1023.1 |
| 20260901170154 | 89 | 173 | 0.9 | 1.7 | 0.00 | 0.00 | 0.00 | 66 | 1023.3 |
| 20260901165653 | 87 | 146 | 0.9 | 1.7 | 0.00 | 0.00 | 0.00 | 70 | 1023.4 |
| 20260901165149 | 87 | 139 | 1.7 | 1.7 | 0.00 | 0.00 | 0.00 | 70 | 1023.3 |
| 20260901164645 | 87 | 139 | 0.9 | 1.7 | 0.00 | 0.00 | 0.00 | 71 | 1023.5 |
| 20260901164140 | 87 | 131 | 0.9 | 0.9 | 0.00 | 0.00 | 0.00 | 71 | 1023.4 |
| 20260901163635 | 87 | 125 | 0.9 | 1.7 | 0.00 | 0.00 | 0.00 | 70 | 1023.7 |
| 20260901163134 | 86 | 93 | 1.7 | 1.7 | 0.00 | 0.00 | 0.00 | 72 | 1023.7 |
| 20260901162630 | 86 | 107 | 0.9 | 1.7 | 0.00 | 0.00 | 0.00 | 74 | 1023.8 |
| 20260901162129 | 86 | 115 | 1.7 | 1.7 | 0.00 | 0.00 | 0.00 | 74 | 1023.8 |
| 20260901161628 | 86 | 116 | 1.7 | 1.7 | 0.00 | 0.00 | 0.00 | 74 | 1023.7 |
| 20260901161128 | 86 | 112 | 0.9 | 1.7 | 0.00 | 0.00 | 0.00 | 73 | 1023.9 |
| 20260901160625 | 86 | 118 | 0.9 | 1.7 | 0.00 | 0.00 | 0.00 | 71 | 1023.9 |
| 20260901160125 | 85 | 118 | 0.9 | 1.7 | 0.00 | 0.00 | 0.00 | 73 | 1024.1 |
| 20260901155624 | 85 | 122 | 0.9 | 1.7 | 0.00 | 0.00 | 0.00 | 75 | 1024.1 |
| 20260901155119 | 85 | 125 | 0.9 | 1.7 | 0.00 | 0.00 | 0.00 | 75 | 1024.2 |
| 20260901154614 | 85 | 115 | 0.9 | 1.7 | 0.00 | 0.00 | 0.00 | 75 | 1024.1 |
| 20260901154109 | 85 | 120 | 0.0 | 0.9 | 0.00 | 0.00 | 0.00 | 74 | 1024.1 |
| 20260901153604 | 85 | 120 | 0.9 | 1.7 | 0.00 | 0.00 | 0.00 | 76 | 1024.2 |
| 20260901153103 | 85 | 126 | 0.0 | 0.9 | 0.00 | 0.00 | 0.00 | 75 | 1024.2 |
| 20260901152558 | 84 | 125 | 0.9 | 0.9 | 0.00 | 0.00 | 0.00 | 76 | 1024.3 |
| 20260901152056 | 84 | 125 | 0.9 | 1.7 | 0.00 | 0.00 | 0.00 | 78 | 1024.4 |
| 20260901151553 | 83 | 125 | 1.7 | 1.7 | 0.00 | 0.00 | 0.00 | 80 | 1024.3 |
| 20260901151052 | 83 | 109 | 0.9 | 1.7 | 0.00 | 0.00 | 0.00 | 79 | 1024.2 |
| 20260901150550 | 83 | 113 | 1.7 | 1.7 | 0.00 | 0.00 | 0.00 | 82 | 1024.4 |
| 20260901150049 | 82 | 105 | 1.7 | 1.7 | 0.00 | 0.00 | 0.00 | 82 | 1024.2 |
| 20260901145549 | 82 | 119 | 1.7 | 1.7 | 0.00 | 0.00 | 0.00 | 81 | 1024.3 |
| 20260901145048 | 82 | 123 | 1.7 | 2.6 | 0.00 | 0.00 | 0.00 | 80 | 1024.1 |
| 20260901144544 | 82 | 119 | 1.7 | 2.6 | 0.00 | 0.00 | 0.00 | 81 | 1024.2 |
| 20260901144038 | 82 | 110 | 1.7 | 1.7 | 0.00 | 0.00 | 0.00 | 83 | 1024.2 |
| 20260901143534 | 81 | 126 | 1.7 | 1.7 | 0.00 | 0.00 | 0.00 | 83 | 1024.2 |
| 20260901143031 | 81 | 125 | 1.7 | 1.7 | 0.00 | 0.00 | 0.00 | 83 | 1024.3 |
| 20260901142526 | 81 | 124 | 1.7 | 2.6 | 0.00 | 0.00 | 0.00 | 85 | 1024.1 |
| 20260901142021 | 81 | 116 | 1.7 | 1.7 | 0.00 | 0.00 | 0.00 | 84 | 1024.2 |
| 20260901141521 | 81 | 110 | 0.9 | 1.7 | 0.00 | 0.00 | 0.00 | 85 | 1024.3 |
| 20260901141015 | 81 | 116 | 0.9 | 1.7 | 0.00 | 0.00 | 0.00 | 86 | 1024.3 |
| 20260901140514 | 80 | 116 | 0.9 | 1.7 | 0.00 | 0.00 | 0.00 | 87 | 1024.3 |
| 20260901140008 | 80 | 124 | 1.7 | 1.7 | 0.00 | 0.00 | 0.00 | 87 | 1024.3 |
| 20260901135502 | 80 | 122 | 1.7 | 1.7 | 0.00 | 0.00 | 0.00 | 88 | 1024.3 |
| 20260901134958 | 80 | 126 | 1.7 | 1.7 | 0.00 | 0.00 | 0.00 | 88 | 1024.2 |
| 20260901134454 | 80 | 131 | 1.7 | 1.7 | 0.00 | 0.00 | 0.00 | 87 | 1024.3 |
| 20260901133953 | 80 | 140 | 0.9 | 1.7 | 0.00 | 0.00 | 0.00 | 88 | 1024.1 |
| 20260901133452 | 81 | 137 | 1.7 | 1.7 | 0.00 | 0.00 | 0.00 | 85 | 1024.1 |
| 20260901132951 | 83 | 147 | 0.9 | 0.9 | 0.00 | 0.00 | 0.00 | 80 | 1024.3 |
| 20260901132451 | 85 | 158 | 0.0 | 0.9 | 0.00 | 0.00 | 0.00 | 81 | 1024.2 |
| 20260901131950 | 82 | 161 | 0.9 | 0.9 | 0.00 | 0.00 | 0.00 | 83 | 1024.2 |
| 20260901131445 | 82 | 150 | 0.9 | 0.9 | 0.00 | 0.00 | 0.00 | 84 | 1024.3 |
| 20260901130941 | 82 | 160 | 0.9 | 1.7 | 0.00 | 0.00 | 0.00 | 84 | 1024.0 |
| 20260901130441 | 83 | 161 | 0.0 | 0.9 | 0.00 | 0.00 | 0.00 | 85 | 1024.2 |
| 20260901125938 | 81 | 175 | 0.9 | 0.9 | 0.00 | 0.00 | 0.00 | 86 | 1024.2 |
| 20260901125433 | 80 | 144 | 0.9 | 1.7 | 0.00 | 0.00 | 0.00 | 87 | 1024.1 |
| 20260901124932 | 81 | 144 | 0.9 | 0.9 | 0.00 | 0.00 | 0.00 | 85 | 1024.3 |
| 20260901124428 | 79 | 155 | 0.0 | 0.0 | 0.00 | 0.00 | 0.00 | 93 | 1024.1 |
| 20260901123922 | 77 | 94 | 0.0 | 0.0 | 0.00 | 0.00 | 0.00 | 94 | 1024.1 |
| 20260901123418 | 76 | 58 | 0.0 | 0.0 | 0.00 | 0.00 | 0.00 | 96 | 1024.1 |
| 20260901122915 | 76 | 350 | 0.9 | 0.9 | 0.00 | 0.00 | 0.00 | 96 | 1023.9 |
| 20260901122410 | 75 | 344 | 0.9 | 0.9 | 0.00 | 0.00 | 0.00 | 97 | 1024.0 |
| 20260901121909 | 74 | 344 | 0.9 | 1.7 | 0.00 | 0.00 | 0.00 | 97 | 1023.8 |
| 20260901121405 | 74 | 354 | 0.9 | 1.7 | 0.00 | 0.00 | 0.00 | 98 | 1023.8 |
| 20260901120901 | 74 | 336 | 0.9 | 1.7 | 0.00 | 0.00 | 0.00 | 98 | 1023.8 |
| 20260901120355 | 74 | 19 | 0.9 | 1.7 | 0.00 | 0.00 | 0.00 | 98 | 1023.6 |
| 20260901115850 | 73 | 345 | 0.0 | 0.9 | 0.00 | 0.00 | 0.00 | 99 | 1023.6 |
| 20260901115350 | 73 | 350 | 0.9 | 1.7 | 0.00 | 0.00 | 0.00 | 99 | 1023.7 |
| 20260901114849 | 73 | 340 | 0.9 | 1.7 | 0.00 | 0.00 | 0.00 | 99 | 1023.5 |
| 20260901114348 | 72 | 358 | 0.9 | 1.7 | 0.00 | 0.00 | 0.00 | 99 | 1023.5 |
| 20260901113846 | 72 | 350 | 0.9 | 1.7 | 0.00 | 0.00 | 0.00 | 99 | 1023.3 |
| 20260901113346 | 72 | 342 | 0.9 | 1.7 | 0.00 | 0.00 | 0.00 | 99 | 1023.2 |
| 20260901112842 | 71 | 340 | 1.7 | 1.7 | 0.00 | 0.00 | 0.00 | 99 | 1023.0 |
| 20260901112342 | 71 | 344 | 1.7 | 1.7 | 0.00 | 0.00 | 0.00 | 99 | 1023.2 |
| 20260901111836 | 71 | 334 | 1.7 | 1.7 | 0.00 | 0.00 | 0.00 | 99 | 1022.9 |
| 20260901111335 | 71 | 331 | 1.7 | 1.7 | 0.00 | 0.00 | 0.00 | 99 | 1022.9 |
| 20260901110834 | 72 | 333 | 1.7 | 2.6 | 0.00 | 0.00 | 0.00 | 99 | 1022.7 |
| 20260901110330 | 71 | 336 | 1.7 | 1.7 | 0.00 | 0.00 | 0.00 | 99 | 1022.9 |
| 20260901105826 | 72 | 331 | 1.7 | 1.7 | 0.00 | 0.00 | 0.00 | 99 | 1022.6 |
| 20260901105320 | 72 | 335 | 1.7 | 1.7 | 0.00 | 0.00 | 0.00 | 99 | 1022.5 |
| 20260901104816 | 72 | 344 | 1.7 | 1.7 | 0.00 | 0.00 | 0.00 | 99 | 1022.5 |
| 20260901104312 | 72 | 349 | 0.9 | 1.7 | 0.00 | 0.00 | 0.00 | 99 | 1022.6 |
| 20260901103807 | 72 | 4 | 1.7 | 1.7 | 0.00 | 0.00 | 0.00 | 99 | 1022.6 |
| 20260901103307 | 72 | 335 | 1.7 | 1.7 | 0.00 | 0.00 | 0.00 | 99 | 1022.5 |
| 20260901102802 | 72 | 341 | 1.7 | 1.7 | 0.00 | 0.00 | 0.00 | 99 | 1022.6 |
| 20260901102301 | 73 | 342 | 1.7 | 1.7 | 0.00 | 0.00 | 0.00 | 99 | 1022.5 |
| 20260901101757 | 72 | 321 | 0.9 | 1.7 | 0.00 | 0.00 | 0.00 | 99 | 1022.5 |
| 20260901101252 | 73 | 339 | 0.9 | 1.7 | 0.00 | 0.00 | 0.00 | 99 | 1022.4 |
| 20260901100751 | 72 | 338 | 1.7 | 1.7 | 0.00 | 0.00 | 0.00 | 99 | 1022.6 |
| 20260901100246 | 73 | 337 | 1.7 | 1.7 | 0.00 | 0.00 | 0.00 | 99 | 1022.5 |
| 20260901095744 | 73 | 334 | 0.9 | 1.7 | 0.00 | 0.00 | 0.00 | 99 | 1022.6 |
| 20260901095242 | 73 | 335 | 0.9 | 1.7 | 0.00 | 0.00 | 0.00 | 99 | 1022.5 |
| 20260901094736 | 73 | 344 | 1.7 | 1.7 | 0.00 | 0.00 | 0.00 | 99 | 1022.3 |
| 20260901094231 | 73 | 335 | 1.7 | 1.7 | 0.00 | 0.00 | 0.00 | 99 | 1022.5 |
| 20260901093726 | 73 | 338 | 1.7 | 1.7 | 0.00 | 0.00 | 0.00 | 99 | 1022.3 |
| 20260901093225 | 73 | 327 | 0.9 | 1.7 | 0.00 | 0.00 | 0.00 | 99 | 1022.4 |
| 20260901092721 | 73 | 9 | 0.9 | 0.9 | 0.00 | 0.00 | 0.00 | 99 | 1022.3 |
| 20260901092217 | 73 | 339 | 1.7 | 1.7 | 0.00 | 0.00 | 0.00 | 99 | 1022.2 |
| 20260901091713 | 73 | 341 | 0.9 | 1.7 | 0.00 | 0.00 | 0.00 | 99 | 1022.3 |
| 20260901091208 | 73 | 338 | 1.7 | 2.6 | 0.00 | 0.00 | 0.00 | 99 | 1022.2 |
| 20260901090702 | 73 | 335 | 1.7 | 2.6 | 0.00 | 0.00 | 0.00 | 98 | 1022.4 |
| 20260901090157 | 73 | 346 | 1.7 | 1.7 | 0.00 | 0.00 | 0.00 | 98 | 1022.1 |
| 20260901085654 | 73 | 341 | 1.7 | 1.7 | 0.00 | 0.00 | 0.00 | 98 | 1022.2 |
| 20260901085149 | 73 | 2 | 0.9 | 1.7 | 0.00 | 0.00 | 0.00 | 98 | 1021.9 |
| 20260901084645 | 73 | 341 | 1.7 | 1.7 | 0.00 | 0.00 | 0.00 | 98 | 1022.1 |
| 20260901084141 | 73 | 342 | 1.7 | 1.7 | 0.00 | 0.00 | 0.00 | 98 | 1021.9 |
| 20260901083641 | 73 | 340 | 1.7 | 1.7 | 0.00 | 0.00 | 0.00 | 98 | 1022.1 |
| 20260901083140 | 73 | 337 | 1.7 | 1.7 | 0.00 | 0.00 | 0.00 | 98 | 1022.0 |
| 20260901082640 | 73 | 337 | 1.7 | 1.7 | 0.00 | 0.00 | 0.00 | 97 | 1022.0 |
| 20260901082136 | 73 | 328 | 1.7 | 1.7 | 0.00 | 0.00 | 0.00 | 97 | 1022.1 |
| 20260901081631 | 73 | 312 | 1.7 | 1.7 | 0.00 | 0.00 | 0.00 | 97 | 1022.0 |
| 20260901081125 | 73 | 321 | 1.7 | 1.7 | 0.00 | 0.00 | 0.00 | 97 | 1022.0 |
| 20260901080619 | 73 | 348 | 1.7 | 1.7 | 0.00 | 0.00 | 0.00 | 97 | 1022.2 |
| 20260901080118 | 73 | 342 | 1.7 | 1.7 | 0.00 | 0.00 | 0.00 | 97 | 1021.9 |
| 20260901075614 | 74 | 335 | 1.7 | 1.7 | 0.00 | 0.00 | 0.00 | 96 | 1021.9 |
| 20260901075114 | 73 | 341 | 1.7 | 1.7 | 0.00 | 0.00 | 0.00 | 96 | 1021.9 |